Theta_e
317 324 345 349 353 351 351 351 361 358 357 357 359 358 353 356 355 355 356 356 357 347
316 318 327 349 349 351 354 351 354 358 357 358 358 358 358 353 355 356 356 359 359 353
316 319 322 342 348 348 346 349 352 354 354 356 358 358 358 353 356 356 354 354 356 356
320 320 321 328 347 349 345 345 351 355 354 354 356 357 357 353 352 351 354 354 355 356
322 321 321 322 329 348 346 339 341 348 350 350 351 352 354 352 350 348 347 352 352 353
320 324 321 322 325 337 339 343 339 335 341 342 346 349 352 351 349 351 347 350 351 352
318 322 324 322 325 329 338 337 336 330 330 325 344 350 351 352 351 350 349 351 349 351
317 320 323 323 325 328 339 334 330 324 324 328 331 347 351 352 352 352 352 354 352 353
315 317 322 323 323 328 332 332 331 332 328 334 349 322 325 346 356 356 355 354 355 355
313 315 320 324 325 324 332 331 328 329 336 344 348 317 318 324 358 357 357 355 354 350
312 315 318 323 325 327 331 333 338 337 333 341 348 313 312 317 359 358 355 354 352 347
312 313 317 322 326 329 327 335 342 343 341 344 346 310 308 327 353 353 351 348 349 342
309 314 316 322 325 329 329 333 335 343 346 336 348 302 307 328 348 350 346 343 334 317
308 313 317 321 325 327 329 331 334 337 341 345 343 326 306 310 348 344 336 330 328 325
Wind_Speed
17 15 16 15 11 12 13 12 16 19 19 19 19 16 16 14 13 15 12 14 11 10
12 14 17 18 16 10 13 14 18 22 20 21 20 18 17 13 15 14 14 12 12 10
9 11 14 15 13 17 9 15 17 19 20 20 20 19 17 13 16 14 13 11 14 12
9 9 10 11 12 13 10 14 22 21 21 21 20 20 19 18 17 18 14 15 14 16
10 7 8 10 14 14 12 7 8 16 18 20 21 20 20 18 15 18 17 16 16 17
16 10 9 8 11 11 12 11 9 3 8 15 18 21 20 19 17 18 17 17 15 13
17 16 10 9 9 12 14 19 15 9 1 17 13 15 15 17 16 16 16 15 14 15
16 15 11 9 11 10 14 12 11 11 10 19 34 16 21 19 19 17 17 17 16 15
16 15 15 5 8 12 9 12 17 19 18 28 18 20 20 18 16 17 17 15 15 12
16 15 13 12 5 9 8 16 20 16 22 22 20 24 20 17 15 15 14 13 12 11
16 15 13 12 6 7 6 6 17 21 18 15 12 19 20 17 15 13 12 12 12 11
17 14 14 11 7 4 5 6 7 17 21 22 15 17 18 17 14 11 13 11 10 14
18 14 11 11 7 6 4 5 3 9 12 11 11 6 18 16 12 11 9 8 12 17
15 14 13 10 7 7 7 5 2 3 3 4 4 11 14 15 12 11 10 9 10 9
Wind_Direction
313 321 250 221 233 188 186 191 188 197 194 194 191 192 184 174 189 187 213 204 232 214
315 314 315 243 237 218 191 197 194 194 196 191 193 189 179 184 187 184 196 202 211 228
307 302 310 289 242 236 230 210 190 190 193 191 191 182 181 191 179 197 187 204 193 214
294 304 303 293 260 231 214 245 203 186 189 193 190 184 181 181 186 188 195 192 198 196
301 303 306 318 324 226 207 197 305 203 191 195 195 183 183 183 190 186 195 194 204 191
310 307 317 314 298 289 229 218 196 196 205 212 206 191 185 173 191 187 190 195 200 200
303 305 304 299 295 287 233 234 217 186 231 288 264 179 182 178 184 185 189 192 197 202
292 297 303 298 301 290 220 209 199 184 144 267 253 196 191 180 183 187 184 191 196 198
293 293 292 255 290 292 227 205 207 251 192 232 209 175 174 176 178 186 189 187 193 193
287 283 282 288 237 289 296 203 190 250 230 188 193 162 167 172 174 181 188 186 180 187
289 283 288 285 275 274 307 270 187 197 227 264 199 169 167 169 176 181 179 185 176 173
283 270 275 282 304 313 322 295 246 208 197 198 213 173 159 167 184 182 175 189 169 148
291 276 266 268 285 299 245 289 306 234 220 201 179 144 155 178 186 192 168 133 139 147
272 264 255 267 278 300 327 316 332 308 318 213 169 155 176 183 193 190 149 152 149 157